Terug naar catalogus

STARLINK-3942

ActiefCommunicatieVLEO
NORAD 52563·PAYLOAD·🇺🇸 United States

Gelanceerd May 13, 2022 vanaf Vandenberg Space Force Base

Loading…

Volgende Passages (komende 24 uur)

TLE

VersSource: CelesTrak SupGP

Epoch: Sep 14, 2026, 20:35 UTC

1 52563C 22051AG  26257.85812500 -.00023506  00000+0 -67263-3 0  2573
2 52563  53.1600 352.2414 0001090  76.9678 216.3146 15.35405100    10

Volg STARLINK-3942 in realtime met AllMySat

Download on the App Store